Wind_Speed
58 57 56 54 54 53 53 55 56 55 53 52 52 52 53 55 58 59 57 60 63 64 69 75 75 74 72 71 69 66 67 67 63 61 60 58 57 56 56 57 59 58 57 57 56 55 55 55 56 57 58 58 58 56 54 54 54 54 53 52 52 49 47 47 46 45 45 44 44 45 47 49 49 49 50 52 53 53 52 52 54 56 59 59 58 58
58 56 55 55 56 56 56 58 58 57 55 53 52 51 51 53 56 57 56 57 61 64 68 74 75 73 72 70 67 64 64 65 64 62 61 60 58 58 58 59 61 61 59 59 58 57 57 57 58 58 58 57 57 58 57 56 54 54 55 54 52 50 49 49 48 47 47 47 48 49 51 52 53 52 52 52 52 51 51 54 56 56 56 58 59 60
55 53 54 56 57 57 58 59 59 58 57 55 53 51 51 51 53 55 54 55 60 63 68 72 71 69 68 67 65 64 65 64 64 64 63 62 60 60 60 61 61 60 58 58 57 57 57 59 60 60 60 60 60 59 58 56 55 55 55 54 53 52 51 50 49 49 49 50 52 53 54 54 54 53 52 51 50 51 53 56 57 57 58 58 59 59
51 50 52 54 55 56 57 58 59 59 57 56 54 52 52 52 52 53 53 55 58 61 66 68 66 64 63 64 65 66 67 66 66 66 65 63 62 61 61 61 60 58 57 57 57 57 57 57 58 59 60 60 60 60 59 58 57 55 54 54 54 53 52 52 52 52 53 54 55 56 56 55 55 54 54 53 51 52 54 56 58 58 58 57 57 57
50 50 53 53 53 54 55 56 58 58 56 55 54 53 52 53 55 55 56 56 57 61 65 64 62 61 61 62 63 64 67 67 67 67 66 64 62 62 61 61 60 59 59 59 58 58 57 57 58 58 59 59 60 60 60 60 58 56 55 55 56 56 57 57 57 57 57 58 57 57 56 56 55 55 55 54 53 53 53 55 56 56 55 54 54 55
51 52 53 52 51 52 53 54 56 56 55 54 54 52 52 55 57 58 60 56 54 59 61 58 59 60 59 59 60 61 64 65 66 66 66 65 64 63 63 62 62 61 61 61 60 59 59 59 60 60 61 61 62 62 62 61 59 58 58 58 59 59 60 61 61 61 61 60 58 57 57 56 56 56 56 55 54 54 53 52 52 52 52 50 50 50
52 53 53 51 50 50 50 51 54 54 52 52 52 52 53 57 59 61 62 56 51 56 56 53 56 58 57 58 59 60 62 62 62 63 64 65 64 64 64 64 64 64 63 62 60 60 60 60 60 61 61 62 63 62 62 61 60 61 61 61 61 62 62 63 63 63 62 61 59 58 57 56 56 56 56 55 54 53 52 51 50 49 47 45 46 49
53 53 52 50 49 49 48 49 51 51 50 48 49 52 54 57 59 62 63 56 52 56 54 50 53 55 55 57 59 60 59 59 59 59 60 62 63 64 64 63 63 63 63 62 60 60 60 60 60 60 61 62 62 61 62 61 62 62 62 62 63 64 64 64 64 63 62 61 59 58 57 56 56 56 56 55 54 53 52 52 51 49 47 44 44 46
55 54 53 51 49 48 47 49 51 50 48 46 48 52 53 56 58 62 65 57 53 57 53 48 50 52 53 54 56 56 54 54 54 55 57 59 60 61 61 62 62 61 62 62 60 59 59 59 58 59 60 61 61 62 62 62 62 62 62 63 64 64 64 63 63 63 62 61 60 58 57 57 57 57 56 56 54 54 53 52 52 50 49 46 44 44
56 55 54 52 48 47 48 51 51 49 48 47 49 52 52 54 58 65 65 56 54 56 50 46 47 49 52 52 52 51 50 51 51 53 56 57 57 57 57 58 59 60 61 61 59 58 58 59 59 59 59 59 60 61 61 62 62 62 62 63 63 63 63 63 62 63 63 62 61 60 59 58 58 58 57 57 55 54 53 53 52 51 50 48 47 46
57 56 55 52 49 48 49 51 52 51 50 49 51 52 52 54 60 64 62 56 54 52 47 46 47 48 51 51 48 48 49 50 51 53 53 53 53 53 52 52 53 55 57 59 58 57 57 58 60 60 60 60 60 60 61 61 61 61 61 61 62 62 61 61 61 61 62 62 61 60 59 59 58 58 58 57 56 54 53 53 53 52 51 49 48 48
59 56 53 51 49 48 49 52 53 54 52 51 52 52 52 55 58 59 58 56 52 47 47 50 49 49 52 51 46 45 45 46 48 50 50 49 50 50 50 49 50 52 54 56 58 58 59 59 60 61 61 60 59 59 59 59 58 58 58 59 59 59 58 58 58 59 60 60 60 59 59 58 58 57 57 56 55 54 53 53 52 52 51 50 49 48
59 55 54 52 48 48 50 51 53 54 52 52 54 53 52 55 55 54 55 54 49 48 50 52 53 53 54 51 44 41 42 43 47 48 47 47 48 48 50 50 51 52 53 55 56 58 59 58 59 59 59 58 57 56 56 55 55 56 56 56 56 55 54 54 55 56 56 57 57 57 57 57 57 56 56 55 55 54 53 52 52 52 51 50 50 49
58 55 54 50 47 50 51 49 51 53 52 54 56 54 52 54 52 51 52 50 50 53 53 54 57 56 54 52 45 41 42 43 46 47 45 45 45 46 48 49 51 53 54 55 55 56 56 56 56 56 56 56 56 56 55 55 55 54 54 53 51 50 50 51 52 52 53 53 54 54 54 54 54 54 54 54 54 53 52 52 52 52 51 50 50 50
58 55 51 49 49 51 50 48 50 53 54 55 57 56 53 52 51 50 51 49 51 54 55 58 61 57 53 51 46 44 44 43 44 46 45 45 45 46 47 48 49 51 53 54 55 55 55 55 55 54 55 56 57 57 56 55 54 53 53 51 49 48 48 49 49 50 50 51 52 52 52 52 52 52 52 53 53 52 52 52 52 52 51 50 50 50
57 55 53 53 54 52 50 48 49 53 54 55 58 58 53 51 51 52 52 51 51 54 56 59 59 56 53 51 48 47 45 43 45 46 47 47 47 47 48 49 49 50 51 52 53 54 54 54 54 54 55 56 56 56 56 55 54 54 53 51 49 48 47 48 48 48 49 49 50 51 51 51 51 51 51 51 51 52 52 52 52 52 51 51 51 51
57 56 56 55 54 52 48 48 50 53 55 55 56 56 51 52 55 54 54 53 52 53 54 56 56 55 54 52 51 48 46 46 48 48 50 51 50 49 49 50 50 50 51 51 52 53 53 54 54 54 55 55 55 56 57 57 56 55 54 52 49 47 47 48 48 48 48 49 49 50 50 50 50 50 50 50 50 51 51 51 52 51 51 51 51 51
58 59 59 56 54 52 49 50 51 53 54 53 53 54 54 56 57 54 53 53 51 52 53 54 54 54 55 55 52 49 48 50 50 50 51 51 51 51 50 50 50 51 51 52 53 53 54 55 55 55 54 54 55 56 57 57 57 55 53 50 48 47 48 49 49 49 48 48 49 49 49 50 50 50 49 50 50 51 51 51 51 52 52 52 51 51
61 60 60 57 55 54 53 53 51 49 49 49 52 56 57 57 55 53 53 51 50 51 51 51 52 54 55 55 52 51 51 52 51 51 52 51 51 50 49 50 50 51 52 53 54 55 56 57 58 57 56 56 56 57 57 56 55 55 53 51 49 49 50 50 50 50 49 49 49 49 49 49 50 50 50 50 50 50 51 51 51 52 52 52 52 52
61 60 60 58 57 58 55 52 48 47 49 49 52 55 56 54 54 54 52 50 49 50 50 51 52 53 53 54 53 53 53 52 52 52 53 53 53 52 51 51 52 53 53 53 54 55 56 58 59 59 59 58 58 57 57 56 56 56 54 53 51 51 52 52 52 52 50 50 49 49 49 49 50 50 50 50 50 50 51 51 52 52 52 52 52 52
62 61 60 60 59 58 53 48 48 50 51 50 52 54 54 53 53 53 52 50 48 49 50 51 51 53 53 53 54 54 53 53 53 53 53 54 54 53 53 53 53 53 53 54 55 56 56 57 58 59 59 58 59 58 57 57 57 56 55 54 54 54 54 53 53 53 52 51 50 49 49 49 50 51 51 51 51 51 51 52 52 52 52 52 52 53
62 61 62 62 59 55 51 49 51 53 53 51 53 55 55 53 52 52 50 48 47 48 49 49 50 53 54 54 54 53 52 52 52 53 55 56 56 55 54 54 54 53 54 55 56 56 57 57 58 59 58 58 59 58 58 57 56 56 56 56 57 57 56 55 54 54 53 52 51 50 49 49 50 51 52 52 51 51 52 52 53 53 52 53 53 53
63 63 64 63 58 54 53 52 52 54 54 54 55 56 54 52 50 49 48 48 48 49 50 51 51 51 53 54 51 49 49 50 51 53 55 56 55 54 53 53 53 52 52 53 54 54 55 55 57 58 58 58 58 58 58 57 57 57 58 59 60 60 58 56 56 55 54 53 52 51 51 50 50 50 51 52 52 52 52 53 53 53 53 53 53 54
65 65 65 62 58 57 57 56 54 55 56 56 56 54 51 50 49 49 49 51 52 53 54 54 51 48 49 49 46 45 48 50 52 54 56 56 54 52 51 51 51 51 51 51 52 52 53 54 55 57 59 59 58 58 58 58 58 58 58 60 62 61 58 56 56 55 54 53 53 53 52 51 51 51 51 52 52 53 53 54 54 54 54 54 54 55
65 66 65 63 61 61 59 56 55 56 57 57 57 55 51 50 51 51 51 53 54 55 56 54 50 46 45 45 45 46 49 51 52 53 53 54 53 50 50 50 50 50 50 50 50 51 52 53 54 56 58 60 60 60 60 60 60 59 59 60 61 60 57 55 55 55 55 54 54 54 53 53 53 52 52 53 53 54 54 55 54 54 54 54 55 56
68 67 67 64 62 60 58 57 57 59 60 59 59 57 54 52 53 53 53 55 55 55 56 54 50 45 42 43 46 49 51 52 53 52 52 52 51 49 49 49 49 49 49 50 50 51 52 53 54 55 57 59 61 62 62 62 60 59 59 59 60 59 58 57 57 56 56 56 55 55 54 54 54 54 54 54 54 55 55 55 55 55 55 55 55 56
68 67 65 63 61 59 60 61 62 63 63 61 59 58 57 55 55 55 55 57 57 56 56 53 48 44 41 42 46 50 52 53 54 54 54 53 51 49 48 48 49 50 50 50 51 52 53 54 54 55 56 58 59 60 60 60 58 57 57 59 60 61 61 61 59 58 58 57 57 57 56 55 55 55 55 55 55 56 56 56 56 56 56 56 56 57
66 64 62 60 60 60 61 62 63 61 60 60 59 59 59 57 56 57 57 59 58 55 53 50 46 44 43 43 45 48 50 52 52 53 53 52 51 49 49 49 51 53 53 52 52 53 55 56 55 55 55 57 58 59 59 58 56 56 58 60 62 62 63 62 61 59 59 59 58 57 57 56 56 56 56 56 56 57 57 57 58 57 57 57 57 58
64 62 60 60 60 61 61 61 61 60 58 59 60 60 60 58 57 58 60 60 57 53 51 49 46 46 46 46 47 48 49 50 51 51 52 52 52 52 51 51 52 54 55 55 54 55 56 56 56 55 55 56 58 60 60 59 59 60 61 62 63 64 63 63 61 60 60 60 59 58 57 57 56 57 57 57 57 58 58 58 59 59 59 59 59 59
63 62 61 61 62 62 61 61 60 59 58 59 60 61 61 59 58 59 59 57 54 52 50 49 48 48 48 48 49 50 51 52 53 53 54 54 54 53 52 52 53 55 56 57 57 57 56 55 54 54 55 57 58 60 61 61 62 63 63 64 64 64 63 62 61 61 61 61 60 59 58 58 57 57 58 58 59 59 59 60 60 60 60 60 60 60
62 62 62 63 63 61 61 60 59 59 58 59 60 60 61 60 58 58 57 54 53 52 51 49 49 49 49 50 52 52 53 54 55 55 56 56 56 55 55 55 56 57 58 60 62 60 57 55 54 53 55 57 57 57 58 59 60 61 62 62 62 62 62 62 62 62 62 61 61 60 60 59 59 59 59 59 60 60 61 61 61 62 62 62 62 62
62 63 62 61 61 61 61 59 59 59 58 58 59 60 60 59 57 56 55 53 53 54 53 51 50 50 50 52 53 54 54 55 56 56 56 57 58 59 60 60 61 61 62 63 62 60 56 54 53 53 53 54 54 54 55 56 57 59 61 62 62 62 62 63 63 63 63 63 62 61 61 61 61 61 60 61 61 61 62 62 63 63 64 64 64 64
61 61 59 59 60 60 59 57 58 58 58 58 58 58 58 58 56 55 55 55 55 54 54 53 52 51 51 52 53 54 54 54 54 54 55 56 57 59 61 62 62 62 62 61 59 56 54 53 53 53 52 52 53 54 55 56 58 59 61 62 63 63 64 64 65 65 65 64 63 62 62 62 62 62 62 62 62 62 62 63 64 64 65 65 65 66
57 57 57 58 59 58 55 54 56 57 56 56 55 54 55 55 55 55 55 55 54 54 54 54 52 52 52 52 53 55 55 54 54 54 54 54 55 55 56 57 57 58 57 57 55 53 52 53 53 52 52 52 53 55 56 57 58 60 61 63 64 65 65 66 66 66 66 65 64 63 63 62 62 63 63 63 63 63 64 64 65 65 66 66 67 67
53 53 54 55 55 53 52 53 55 54 53 53 52 52 53 53 54 55 55 55 54 54 55 54 52 52 53 53 53 54 55 55 55 55 55 54 53 53 53 53 53 54 54 53 52 51 51 52 52 53 53 53 54 55 56 58 60 62 63 64 65 66 67 67 67 67 67 66 65 64 64 64 63 64 65 65 65 65 66 66 67 67 68 68 69 69
48 49 50 50 50 49 49 51 53 52 51 51 51 51 52 52 54 55 56 56 55 55 54 52 51 51 52 51 51 51 52 53 53 53 53 53 52 52 52 52 52 52 53 52 51 51 50 50 52 54 54 54 55 57 60 62 63 64 64 65 65 66 67 67 67 67 67 66 66 65 65 65 65 66 66 66 67 67 68 68 69 69 70 71 71 71
45 46 46 46 46 46 48 51 52 51 50 50 51 52 52 53 55 56 56 56 55 54 52 50 50 50 50 49 49 48 48 48 48 49 50 50 51 51 51 51 52 53 53 53 52 52 51 51 53 55 57 58 59 61 63 64 64 65 65 65 65 66 67 67 67 67 67 67 67 67 66 67 68 68 68 68 69 70 70 71 72 72 73 73 74 74
44 44 44 43 44 45 46 49 51 50 50 51 53 54 54 54 54 55 55 55 53 51 50 48 47 47 47 47 46 46 46 45 45 47 48 49 50 51 52 53 54 55 55 54 54 54 54 55 55 57 58 60 61 63 63 64 64 65 65 66 66 67 67 67 67 68 68 68 68 69 68 69 69 70 70 71 72 73 74 74 75 75 76 76 76 77
43 43 43 43 44 44 45 47 49 51 52 54 54 55 55 55 55 55 54 52 50 48 46 46 45 45 46 47 48 48 48 48 50 51 52 53 54 55 55 57 57 57 58 58 58 57 58 58 58 59 60 61 62 63 64 64 65 66 66 67 67 68 68 68 68 68 68 69 69 70 70 70 71 73 73 74 75 76 77 77 78 78 79 79 79 79
43 43 43 43 43 43 43 45 47 50 53 54 54 53 53 54 54 52 51 50 50 49 48 47 47 47 48 49 50 51 52 54 55 57 57 57 58 58 59 59 59 60 60 60 60 60 61 61 61 61 62 62 63 64 65 65 66 66 67 68 68 68 69 69 69 69 69 70 70 71 72 72 73 75 76 77 78 78 79 80 81 81 81 82 82 82
43 43 42 42 42 42 42 43 45 48 50 51 51 52 53 52 50 48 48 49 50 50 51 51 51 51 52 53 53 55 56 57 58 59 59 59 60 60 60 60 59 60 60 60 60 61 61 62 62 62 63 64 64 65 65 66 67 67 68 68 69 69 69 69 69 69 70 71 72 73 74 74 75 77 78 79 80 81 82 82 83 83 83 84 84 83
43 42 42 41 42 42 43 44 45 46 47 48 48 50 51 50 48 47 48 50 51 52 53 55 56 56 57 58 58 59 60 60 60 61 61 61 61 62 61 60 59 59 59 59 60 60 61 62 62 63 63 64 65 66 66 67 68 68 69 68 68 69 69 69 69 70 71 72 73 75 76 77 78 79 80 81 82 82 83 84 84 84 84 84 84 83
41 41 42 41 42 43 43 44 44 45 47 48 49 50 50 49 49 50 51 52 53 55 55 56 57 58 59 60 61 61 61 61 61 61 61 61 61 61 60 59 59 59 59 59 60 60 61 62 63 64 64 65 66 67 67 68 68 68 68 68 68 68 69 69 70 71 72 74 75 76 78 79 80 81 82 83 83 84 84 84 84 83 83 83 82 81
38 39 40 40 40 41 42 42 44 45 48 50 52 52 52 52 53 54 55 55 55 56 57 56 57 58 59 60 61 60 60 60 60 59 58 57 57 57 57 57 58 58 59 59 60 61 62 63 64 65 65 66 66 67 67 67 67 67 67 68 68 68 69 70 71 72 74 75 77 78 80 81 82 83 83 83 84 83 83 83 82 82 81 81 80 78
36 37 38 38 39 41 42 43 44 46 48 51 53 52 52 52 54 54 55 55 56 56 57 57 57 58 58 59 60 59 58 57 56 55 54 54 54 55 55 56 57 57 58 59 60 62 62 63 64 64 65 65 66 66 66 67 67 67 67 68 68 69 70 71 73 74 75 77 78 80 81 82 82 83 83 83 83 82 81 81 80 79 78 77 76 75
35 35 36 37 38 40 40 42 44 46 48 50 50 49 49 49 51 52 53 54 54 55 55 55 55 55 55 56 56 55 54 53 52 52 52 53 53 54 55 56 56 57 58 59 60 61 62 63 63 64 64 65 65 66 66 66 66 67 68 68 69 70 71 73 74 76 77 78 79 80 81 82 82 82 82 81 81 80 79 77 76 75 74 73 71 71
33 33 34 36 37 38 39 40 42 43 44 44 44 45 45 46 47 48 49 50 51 51 51 51 51 51 51 51 51 50 50 50 50 51 52 53 53 54 55 56 57 58 58 59 60 61 62 63 63 63 63 64 65 65 65 66 67 68 68 69 70 72 73 74 75 77 78 79 80 81 81 81 81 81 79 78 76 75 74 73 71 70 69 68 66 65
32 32 33 34 35 36 37 38 39 39 39 40 40 41 41 42 43 44 45 46 47 47 47 47 47 48 48 48 48 48 49 50 51 52 53 54 54 55 56 57 58 58 59 60 61 62 62 62 63 63 63 64 65 66 66 67 68 69 70 71 72 73 74 75 76 77 78 79 79 79 79 79 78 77 76 74 71 70 68 67 66 64 64 63 62 61
33 33 33 34 35 36 37 37 38 38 38 39 40 40 40 41 42 43 43 44 44 45 46 46 46 47 47 48 49 50 51 52 52 53 54 55 56 57 58 58 59 60 60 60 61 62 62 62 63 63 64 65 66 66 67 68 69 70 71 72 73 74 75 76 77 77 78 78 77 77 76 75 73 71 70 69 67 65 63 62 61 60 60 60 60 59
35 35 36 37 38 39 40 40 40 41 41 41 42 42 42 42 42 42 43 43 44 45 46 46 47 48 49 50 51 52 53 54 54 55 56 57 58 58 58 59 59 60 60 60 61 62 63 63 64 64 65 66 67 67 68 69 70 71 72 73 74 75 75 76 76 76 76 75 74 72 71 70 68 66 64 63 62 61 60 59 58 57 56 56 57 57
35 37 38 39 40 40 40 41 41 41 41 42 42 42 41 41 42 43 43 44 45 46 47 48 49 50 51 52 53 54 55 56 56 57 57 58 58 58 58 59 59 60 60 61 62 63 63 64 65 65 66 67 67 68 69 70 70 71 72 73 74 75 75 75 74 73 72 70 69 67 66 64 63 61 60 58 58 57 57 56 55 54 53 53 52 53
Wind_Direction
241 243 244 246 247 247 246 246 245 244 241 238 238 238 237 237 238 237 234 236 239 237 238 240 240 240 240 241 241 243 248 251 250 250 251 250 250 251 251 251 252 253 253 254 255 255 255 257 260 262 262 262 263 264 266 269 271 272 272 276 279 276 274 275 275 274 275 275 274 274 276 278 279 279 279 280 281 282 283 282 283 286 288 290 290 290
241 242 244 245 245 245 245 246 246 246 244 242 240 239 238 238 239 239 235 235 238 238 238 239 240 241 242 243 244 245 247 251 252 251 250 250 250 250 250 251 252 253 254 255 257 257 257 259 261 262 262 263 264 266 268 269 269 270 272 275 275 273 273 273 273 274 275 275 275 276 278 279 280 279 278 278 278 280 281 283 285 287 288 289 290 291
241 242 243 243 243 243 244 245 246 247 247 245 243 242 241 241 241 240 236 234 237 239 239 240 241 242 243 245 245 245 245 248 250 251 250 250 250 250 251 252 253 255 257 258 259 259 259 260 261 261 262 264 266 267 268 268 268 270 272 272 272 271 271 271 272 274 274 275 276 277 278 279 279 278 277 277 278 278 281 283 284 285 287 288 290 291
239 240 241 241 241 242 242 243 244 245 246 247 246 245 244 243 243 242 237 233 234 238 240 241 242 243 244 244 244 244 244 245 247 250 251 251 251 252 252 254 255 256 257 258 259 259 260 261 260 261 262 264 266 267 267 268 269 269 269 269 269 269 269 271 272 273 274 275 276 277 277 277 277 276 276 276 276 277 280 282 285 286 288 289 291 291
236 237 238 239 239 240 240 241 243 244 245 246 246 246 246 246 244 242 238 233 232 236 240 242 244 244 244 244 245 245 245 245 247 249 251 252 253 253 254 255 255 256 256 257 258 258 259 260 260 261 262 264 265 266 267 268 269 268 267 267 268 268 270 271 272 273 275 276 276 276 276 276 276 276 275 276 277 278 279 281 285 287 288 291 292 294
235 236 238 239 240 241 241 242 243 243 243 244 245 245 245 245 245 244 241 235 232 237 241 243 245 245 244 244 244 245 245 246 246 248 250 251 252 253 254 254 255 255 256 256 257 258 259 259 261 262 263 265 265 266 267 268 268 268 268 268 268 269 270 272 273 274 274 275 275 275 276 276 276 276 276 277 278 279 280 281 283 285 289 292 293 294
235 237 239 240 240 241 241 242 244 244 243 244 244 244 243 244 246 246 244 238 233 237 239 240 243 244 243 243 243 243 244 245 246 247 248 250 251 252 253 254 255 256 256 257 258 258 259 260 261 262 264 265 266 266 267 267 268 268 269 269 269 270 271 272 273 274 274 274 274 275 275 275 276 277 278 278 279 280 281 282 282 284 287 288 289 289
236 237 239 240 240 241 241 242 243 243 243 243 243 242 241 243 246 248 248 242 236 237 236 235 240 242 242 243 244 243 244 246 247 248 249 250 250 251 252 253 255 256 257 257 259 259 260 261 261 262 263 264 265 266 266 267 268 269 269 270 270 271 272 272 273 274 274 274 274 274 275 275 276 277 278 279 280 280 281 282 282 282 282 282 283 284
235 237 239 240 240 241 240 240 241 242 241 240 241 240 240 242 244 246 248 244 239 239 236 232 237 242 243 243 245 245 246 247 248 249 250 250 251 251 251 252 254 256 257 258 259 260 260 261 261 262 263 264 265 266 267 268 268 269 270 271 271 272 272 273 273 274 274 274 274 274 274 275 275 276 277 278 279 280 281 281 281 281 281 281 280 280
235 235 237 239 239 239 238 237 238 239 239 238 238 239 239 240 241 244 247 246 242 242 240 237 237 241 242 241 243 246 245 245 245 246 247 248 249 251 252 252 253 255 256 257 258 259 259 259 260 261 263 265 266 267 268 269 269 271 271 272 272 272 272 273 273 274 274 274 274 274 274 274 274 276 276 277 278 279 280 280 281 281 282 282 282 280
235 235 236 238 238 237 236 236 236 236 236 236 237 239 239 239 240 244 248 249 246 245 246 243 240 241 242 239 239 243 244 245 246 246 247 248 249 252 253 253 253 255 256 256 256 258 259 259 259 260 263 267 268 268 269 270 271 271 272 272 272 272 272 273 273 274 274 274 274 273 273 273 273 274 275 276 277 278 279 279 280 281 282 282 282 282
234 235 236 238 239 238 237 236 235 235 236 237 239 240 241 241 243 246 250 252 251 250 250 248 245 243 244 240 236 240 245 247 248 247 247 248 248 250 251 250 252 254 255 255 254 256 258 259 259 261 264 267 268 269 270 270 271 271 271 272 273 273 274 275 275 275 274 274 274 273 273 273 272 273 273 274 275 276 277 278 279 280 281 282 281 281
234 235 235 237 238 238 237 236 236 236 236 239 241 241 243 245 247 249 251 254 255 252 249 249 247 245 245 242 234 236 242 245 247 247 246 246 247 248 249 249 250 252 253 254 255 256 257 259 260 262 264 266 267 268 269 270 270 271 272 273 274 275 276 277 276 276 275 275 275 274 273 272 272 272 272 273 274 275 275 276 277 278 280 281 281 281
234 235 236 238 238 239 239 237 237 238 237 240 243 243 244 248 250 251 253 254 253 251 248 246 245 244 246 245 237 234 239 242 246 249 248 246 247 247 248 248 249 250 251 253 255 257 258 259 261 262 263 265 267 268 269 271 271 271 272 274 275 277 278 278 277 277 277 276 276 275 273 272 271 271 271 271 272 273 274 275 276 277 278 279 280 281
233 234 235 238 238 238 240 238 237 238 236 238 242 242 242 246 249 250 251 250 249 249 247 245 245 246 248 249 244 238 237 240 244 248 249 247 245 245 246 247 248 249 250 252 254 256 258 259 260 261 263 265 266 268 269 270 270 270 272 274 275 277 278 278 278 278 278 277 277 275 274 272 271 270 269 270 271 272 273 274 276 277 278 279 280 281
233 234 233 234 236 235 237 238 236 237 237 237 241 242 242 245 247 248 249 248 248 248 248 247 248 249 249 249 247 243 240 240 241 244 247 247 244 243 243 244 247 249 251 252 253 255 256 257 258 259 262 264 265 266 267 267 269 270 272 273 274 275 276 277 278 279 279 279 277 276 274 272 270 269 268 269 270 271 272 274 275 277 278 279 279 280
233 234 233 233 237 237 236 237 237 237 236 236 240 243 243 244 244 245 248 248 248 249 249 249 250 250 250 248 247 247 246 245 243 242 244 246 245 242 242 245 248 251 252 253 254 254 254 255 257 259 261 262 264 265 265 266 269 270 272 272 273 273 275 277 279 280 280 279 278 276 274 272 270 268 268 268 269 270 271 273 275 276 277 278 279 279
230 232 233 232 235 236 235 236 237 238 238 237 240 242 241 241 242 244 247 249 251 252 252 252 251 250 250 249 248 247 246 246 246 246 246 247 247 246 246 249 251 253 254 255 255 256 256 257 257 259 260 261 263 264 266 267 269 270 271 272 273 275 278 279 280 280 280 279 277 275 273 272 270 268 267 267 268 269 271 273 274 275 277 278 279 280
230 231 233 232 232 233 232 233 235 240 243 240 239 242 242 243 245 246 248 250 253 255 255 254 253 251 249 250 249 247 246 246 248 249 250 250 250 249 250 252 253 254 254 255 256 257 258 259 259 259 260 261 263 265 266 268 269 270 272 273 274 277 278 279 280 280 280 279 278 275 273 271 269 268 267 267 268 270 271 273 274 275 276 278 279 281
231 232 234 233 233 233 233 233 235 238 241 239 238 241 243 245 246 247 248 249 251 254 255 254 252 251 249 249 248 247 247 247 248 249 251 252 252 252 252 253 254 255 256 257 258 258 259 260 260 261 261 262 264 265 267 268 270 271 273 274 275 276 278 279 280 280 280 280 279 276 273 271 269 268 267 267 268 270 271 273 274 275 276 278 279 280
232 233 235 235 234 234 234 235 237 238 239 240 240 240 242 244 246 247 248 249 250 252 253 253 251 250 248 246 245 246 247 248 248 249 250 251 252 254 255 255 257 258 260 261 261 261 261 261 261 262 263 263 264 265 267 269 270 272 274 275 275 276 278 279 280 280 280 279 279 277 274 271 269 268 268 267 268 270 271 272 274 275 276 277 279 280
232 233 235 235 235 234 234 234 236 239 240 241 242 241 240 241 244 246 248 249 251 252 252 252 250 248 248 246 245 245 247 249 250 251 251 251 253 255 257 258 260 261 262 262 262 262 262 262 263 263 263 263 264 266 268 269 270 272 273 275 277 277 278 279 281 281 280 279 279 277 275 273 270 268 268 268 269 270 271 272 273 274 275 276 278 279
231 233 234 235 235 235 234 233 235 239 241 241 242 242 241 241 243 247 249 249 250 250 249 248 247 246 247 247 247 247 249 250 251 251 252 253 254 255 257 258 260 261 262 262 262 263 263 263 263 264 264 264 264 266 267 268 269 271 273 275 276 277 278 280 280 280 280 279 279 278 277 274 272 270 269 269 269 270 271 271 272 273 274 275 277 278
230 233 235 236 236 235 235 233 234 237 240 242 243 244 243 242 243 244 246 247 248 248 248 249 248 247 246 248 248 249 249 249 249 251 252 253 254 256 258 259 260 261 262 263 264 265 265 264 263 263 263 263 264 265 265 267 268 270 272 274 276 277 278 278 279 279 280 279 279 278 277 276 274 272 271 269 269 270 270 271 272 273 274 275 276 277
230 233 235 236 235 236 236 235 236 239 242 244 245 245 243 241 241 241 243 246 249 251 252 253 252 251 248 247 245 246 248 249 249 252 254 256 257 259 260 260 260 261 263 264 265 266 266 265 264 263 262 262 263 264 265 266 267 269 270 272 275 277 278 278 279 279 279 279 278 278 277 277 276 274 273 272 271 271 271 272 273 274 275 275 276 277
230 232 234 236 236 238 239 238 237 239 241 242 243 244 242 241 241 242 243 246 249 251 254 255 255 255 254 250 245 244 247 250 252 254 256 259 261 261 262 262 262 263 264 264 264 264 265 265 265 264 263 263 263 264 265 266 267 269 270 272 275 277 279 280 281 280 279 279 279 278 278 277 277 276 275 274 273 273 272 273 274 274 275 276 276 277
230 233 235 237 237 237 237 237 236 235 237 239 240 241 240 239 240 241 242 245 248 250 253 255 257 257 255 252 248 247 248 251 253 256 258 260 262 262 263 264 265 265 265 263 263 263 264 265 266 266 266 265 264 264 264 265 268 270 271 273 275 277 279 280 281 281 281 280 280 280 279 279 278 278 277 276 275 274 274 274 274 275 275 276 276 277
232 233 236 237 238 237 236 236 236 235 236 238 238 239 239 238 239 241 242 244 247 250 254 257 258 257 253 248 246 247 249 251 254 256 259 260 262 262 263 264 266 266 266 264 264 265 266 266 267 267 267 266 264 263 262 264 266 268 269 271 273 275 278 279 280 280 281 281 281 281 280 280 280 279 278 278 277 276 275 275 275 275 276 276 277 277
233 234 235 236 237 237 237 237 238 235 234 236 236 237 238 238 239 241 243 245 248 252 255 257 257 256 254 249 245 245 248 251 253 256 258 260 262 263 264 263 264 265 266 267 267 268 268 268 268 268 267 266 264 263 262 262 264 265 267 270 272 275 277 278 279 280 281 281 281 281 281 281 280 280 279 279 278 277 277 277 277 277 277 277 277 278
233 233 234 235 236 237 237 238 239 237 235 234 235 236 238 238 239 241 245 248 251 254 255 256 256 256 256 253 249 247 248 250 252 254 256 257 260 262 262 261 261 263 266 268 270 271 271 270 270 269 267 265 264 263 263 263 264 266 268 271 273 275 276 276 278 280 281 282 282 281 282 281 281 281 280 280 280 279 279 278 278 279 279 279 279 280
232 233 234 235 237 238 239 240 240 239 237 235 235 237 238 239 240 243 246 249 252 254 254 254 255 256 256 254 251 248 248 249 251 252 254 255 257 259 260 260 261 263 266 269 271 273 273 272 271 269 267 265 264 264 264 265 266 268 270 271 273 274 275 277 279 280 282 282 282 282 283 283 282 282 281 281 281 280 280 280 280 280 280 280 281 281
232 234 235 236 238 239 239 240 240 240 238 236 235 235 237 239 240 243 247 249 251 252 253 252 251 252 252 251 250 249 249 250 252 254 255 256 257 258 259 261 262 264 266 269 271 272 272 272 270 268 265 264 264 264 264 265 267 269 271 273 274 275 276 278 280 281 282 283 283 283 283 283 283 283 283 282 282 282 282 281 281 281 281 281 281 281
232 233 235 236 238 239 239 239 239 239 237 236 235 235 237 239 241 243 246 248 249 251 252 251 249 249 250 250 250 250 249 250 252 254 256 257 258 259 260 262 263 265 266 268 270 271 272 271 268 265 263 263 264 265 266 268 270 272 273 275 276 277 278 279 281 282 283 284 284 283 284 284 285 285 284 284 284 283 283 283 283 282 282 282 282 282
232 233 234 234 236 237 238 238 237 236 235 234 234 235 237 239 241 244 246 247 249 251 251 250 249 248 248 249 249 249 249 250 252 254 256 258 260 261 262 263 264 264 266 267 269 271 271 269 266 263 263 265 267 268 270 271 272 273 274 276 277 278 279 280 281 283 283 284 284 284 284 285 286 286 285 285 285 285 285 284 284 284 283 283 283 282
229 230 231 232 233 234 234 234 234 233 232 232 232 234 236 239 241 244 246 247 248 249 250 249 248 248 248 248 248 249 249 250 252 254 257 259 260 262 263 264 264 265 267 268 269 269 269 268 265 264 265 267 270 271 271 272 272 273 274 276 277 278 279 280 282 283 283 283 283 284 285 285 286 286 286 286 286 286 286 285 285 284 284 283 283 283
226 227 229 230 231 231 231 232 233 232 230 230 231 233 235 238 241 243 245 246 246 246 248 249 249 249 249 249 249 250 251 251 252 254 256 258 260 261 262 263 264 266 267 267 268 268 268 266 264 263 264 266 268 269 270 271 272 273 275 277 278 279 280 281 282 282 283 283 284 284 285 285 286 286 286 287 287 286 286 285 285 285 284 284 284 283
223 225 227 229 230 230 229 230 231 231 229 230 231 233 235 238 242 244 246 247 247 246 247 247 248 249 250 250 250 251 252 252 253 254 255 256 257 259 261 263 265 266 267 268 269 269 268 266 265 264 265 266 267 269 270 272 274 275 276 278 279 280 281 281 282 282 283 284 284 285 285 286 286 287 287 287 287 286 286 286 285 285 285 284 284 283
220 222 224 225 227 227 227 228 230 230 231 231 233 234 235 238 241 243 245 246 246 246 246 246 247 248 247 247 249 250 250 251 253 254 255 256 258 260 263 266 267 268 269 270 271 271 269 268 268 268 268 269 269 271 272 274 275 277 278 279 280 280 281 281 282 283 284 284 285 286 286 287 287 287 287 287 287 287 287 286 286 286 285 284 284 283
220 221 221 222 223 224 224 225 227 228 230 232 233 235 236 237 239 240 242 244 245 245 246 247 248 249 247 246 247 250 252 254 256 258 259 261 264 266 267 268 269 269 270 271 272 272 271 271 271 271 271 271 272 274 275 276 277 278 279 279 280 280 281 282 283 284 285 285 286 287 287 287 288 288 288 288 287 287 287 287 286 286 285 284 284 283
220 221 221 222 223 223 222 223 225 227 229 231 232 234 236 238 239 240 241 243 244 243 243 245 247 250 250 249 250 253 255 257 258 260 262 264 266 267 268 268 269 269 270 270 271 271 271 271 271 271 272 273 274 275 276 277 278 279 279 280 280 281 282 283 284 285 285 286 287 287 287 287 288 288 288 288 288 288 287 287 286 286 285 285 284 283
219 220 221 222 223 223 222 222 224 227 230 232 232 234 235 237 239 240 241 243 244 244 243 243 245 248 251 252 254 255 256 257 258 260 262 263 265 266 267 267 268 269 269 270 270 270 270 270 271 271 272 273 274 275 277 278 279 279 280 281 281 282 283 284 285 286 286 287 287 287 287 288 288 288 288 288 288 288 288 287 287 286 286 285 285 284
220 221 221 222 222 222 221 220 222 225 230 232 234 235 237 237 238 238 239 241 243 244 244 244 244 246 250 252 254 255 256 257 259 261 262 263 264 265 265 266 267 268 269 270 270 270 270 270 271 272 273 274 275 276 278 279 280 280 281 282 283 284 284 285 286 287 287 287 288 288 288 289 289 289 289 289 288 288 288 288 287 287 286 286 285 285
222 222 223 223 224 224 224 223 223 225 229 232 233 235 236 237 236 236 236 239 241 243 245 246 247 248 251 253 255 256 258 260 261 262 263 264 264 264 264 265 266 268 269 269 270 270 270 271 272 273 274 275 276 278 279 279 280 281 282 283 284 285 285 286 287 287 288 288 289 289 289 290 290 290 289 289 289 289 289 289 288 288 287 287 286 285
226 227 227 226 226 227 227 226 226 227 230 232 234 235 236 237 238 238 239 241 243 245 247 249 250 251 253 255 257 259 260 261 262 263 263 264 264 264 265 265 266 267 268 268 269 270 270 271 273 274 275 276 277 278 279 280 281 282 283 284 284 285 286 287 287 288 289 289 290 290 290 290 290 290 290 291 291 290 290 290 290 290 289 288 288 287
231 232 233 232 230 229 229 229 229 230 232 235 237 238 239 240 242 243 245 246 247 248 250 251 253 254 255 257 258 260 261 261 261 262 262 262 262 263 265 265 266 267 267 268 269 270 271 273 274 275 276 277 278 279 280 281 282 283 284 285 286 287 287 288 288 289 290 291 291 291 291 291 291 292 292 292 292 292 292 292 291 291 290 290 289 288
235 236 237 237 236 235 234 234 235 235 236 239 241 243 244 245 247 248 249 250 251 252 253 254 255 256 256 257 258 258 259 260 260 260 261 261 262 263 264 265 266 267 268 269 270 272 273 274 275 276 277 278 279 280 281 282 283 284 285 286 287 287 288 289 290 290 291 291 292 292 292 292 293 293 293 293 293 293 293 293 292 292 291 290 290 289
243 242 241 241 241 240 239 239 240 241 242 244 246 248 248 248 248 249 250 251 252 253 254 255 255 255 256 256 257 257 258 259 260 261 262 263 264 265 266 267 268 269 270 271 272 273 274 275 276 277 278 279 280 280 282 283 284 285 286 286 287 288 289 290 291 291 292 292 292 293 293 293 293 294 294 294 294 294 294 294 293 292 292 291 290 289
247 245 243 243 243 243 244 244 245 245 246 247 248 249 248 248 248 248 248 249 250 252 253 254 254 255 256 257 258 259 260 261 262 263 265 266 267 267 268 269 270 271 272 273 274 274 275 276 277 277 278 279 280 281 282 283 284 285 286 287 288 289 290 291 291 292 292 293 293 293 293 294 294 295 295 295 295 295 294 294 294 294 294 293 292 292
242 240 240 241 242 243 244 246 248 248 249 249 249 249 248 248 248 248 249 250 251 252 253 254 255 256 257 259 260 260 262 263 264 265 266 267 268 269 270 271 272 273 273 274 274 275 275 276 277 278 279 280 281 282 283 284 285 286 287 288 289 290 291 291 292 292 292 293 293 294 294 294 295 295 296 296 296 296 296 296 295 295 295 295 294 294
238 238 237 237 238 239 241 243 245 247 249 249 250 249 249 249 250 251 252 253 253 254 255 256 257 258 259 260 261 262 263 264 266 267 268 268 269 270 271 272 272 273 273 274 274 275 276 277 278 278 279 281 282 283 284 285 286 287 288 289 290 291 291 292 292 292 293 293 294 294 295 295 296 296 297 297 298 298 298 298 298 297 296 296 295 295
239 239 239 239 239 241 242 243 244 246 248 250 251 253 253 254 254 254 254 255 255 255 256 256 257 258 259 260 262 263 264 266 267 267 268 269 270 270 271 271 272 272 273 273 274 275 276 277 278 279 280 281 283 284 285 286 287 288 289 290 290 291 291 292 292 293 293 294 294 295 296 296 297 298 298 298 298 299 299 299 299 298 298 297 296 295
Height
10632 10636 10643 10648 10650 10654 10657 10656 10657 10659 10664 10669 10671 10676 10680 10682 10682 10688 10697 10696 10695 10701 10697 10692 10696 10701 10706 10710 10716 10723 10724 10728 10738 10743 10746 10750 10753 10755 10755 10754 10753 10754 10756 10757 10759 10761 10762 10762 10762 10762 10762 10762 10764 10765 10766 10767 10767 10767 10766 10766 10765 10764 10765 10765 10766 10767 10769 10770 10770 10769 10768 10767 10768 10768 10764 10758 10755 10752 10750 10749 10749 10749 10747 10747 10746 10745
10628 10635 10640 10642 10643 10646 10649 10649 10651 10654 10659 10664 10668 10672 10675 10677 10678 10682 10692 10694 10689 10690 10688 10684 10688 10695 10701 10708 10718 10726 10725 10725 10730 10735 10738 10742 10746 10747 10747 10746 10745 10748 10751 10753 10755 10756 10757 10756 10756 10756 10756 10757 10758 10759 10760 10762 10762 10762 10762 10761 10760 10760 10760 10760 10760 10761 10762 10763 10763 10764 10763 10762 10762 10762 10760 10758 10754 10750 10746 10744 10744 10745 10744 10743 10742 10740
10626 10632 10634 10635 10636 10639 10642 10643 10645 10649 10654 10659 10664 10669 10671 10672 10673 10676 10686 10691 10684 10681 10678 10678 10685 10694 10701 10708 10716 10720 10721 10721 10721 10724 10730 10734 10738 10740 10740 10740 10741 10744 10747 10749 10750 10751 10751 10750 10750 10750 10750 10751 10752 10753 10754 10756 10757 10757 10757 10756 10755 10755 10755 10755 10755 10755 10756 10756 10757 10757 10757 10756 10756 10755 10755 10755 10753 10748 10744 10740 10739 10740 10740 10740 10738 10735
10623 10627 10626 10626 10629 10632 10636 10638 10639 10644 10650 10655 10660 10664 10666 10667 10667 10670 10678 10682 10679 10674 10670 10674 10685 10693 10699 10703 10708 10711 10713 10715 10715 10717 10722 10728 10731 10733 10734 10735 10737 10740 10742 10743 10744 10744 10745 10744 10745 10745 10745 10745 10746 10747 10748 10749 10751 10752 10751 10750 10749 10750 10750 10750 10749 10749 10749 10750 10750 10751 10751 10750 10750 10750 10749 10750 10750 10747 10744 10738 10734 10734 10736 10736 10734 10731
10617 10618 10617 10619 10623 10626 10630 10632 10634 10639 10646 10650 10654 10658 10661 10660 10659 10661 10665 10671 10675 10668 10665 10675 10685 10689 10695 10697 10701 10704 10706 10709 10713 10714 10717 10721 10725 10727 10728 10730 10732 10734 10735 10736 10737 10738 10738 10738 10738 10739 10739 10739 10740 10740 10742 10743 10745 10745 10745 10744 10744 10744 10744 10744 10744 10744 10744 10744 10744 10744 10744 10744 10744 10744 10744 10744 10744 10744 10742 10738 10733 10729 10730 10731 10729 10726
10610 10611 10611 10615 10619 10622 10626 10628 10630 10636 10642 10645 10649 10654 10655 10651 10650 10651 10653 10663 10672 10665 10666 10678 10681 10683 10689 10692 10695 10698 10699 10703 10708 10711 10713 10715 10718 10720 10721 10722 10724 10726 10728 10729 10731 10732 10732 10733 10732 10732 10733 10733 10733 10734 10736 10737 10738 10739 10738 10738 10738 10738 10738 10738 10737 10737 10738 10738 10738 10738 10737 10737 10737 10737 10737 10737 10738 10737 10736 10736 10733 10729 10727 10727 10724 10721
10604 10606 10607 10612 10616 10618 10622 10625 10626 10632 10638 10642 10645 10648 10648 10644 10643 10643 10644 10658 10668 10663 10668 10676 10674 10677 10682 10685 10688 10691 10692 10697 10701 10705 10707 10709 10711 10713 10714 10715 10717 10719 10721 10723 10725 10726 10726 10727 10726 10726 10727 10727 10727 10728 10729 10731 10732 10732 10732 10732 10732 10732 10732 10731 10731 10731 10731 10732 10732 10732 10731 10731 10730 10730 10730 10730 10730 10729 10729 10729 10729 10728 10728 10726 10720 10715
10599 10601 10604 10608 10611 10614 10620 10622 10622 10627 10633 10638 10639 10640 10641 10639 10639 10636 10636 10652 10661 10657 10665 10672 10669 10672 10677 10679 10681 10684 10689 10693 10696 10699 10701 10702 10704 10706 10708 10709 10711 10713 10715 10717 10718 10719 10720 10720 10720 10720 10720 10721 10722 10723 10724 10725 10725 10725 10726 10726 10726 10725 10725 10725 10724 10724 10725 10725 10725 10725 10725 10725 10724 10723 10723 10724 10724 10723 10722 10722 10722 10722 10723 10723 10719 10713
10593 10597 10600 10603 10607 10612 10617 10617 10618 10623 10629 10634 10632 10632 10635 10635 10634 10628 10627 10646 10654 10651 10661 10670 10668 10669 10672 10674 10675 10680 10687 10690 10692 10694 10694 10695 10696 10699 10702 10704 10706 10708 10709 10710 10711 10713 10713 10714 10714 10714 10714 10716 10717 10717 10718 10718 10718 10719 10720 10719 10719 10719 10718 10718 10718 10717 10717 10718 10718 10718 10719 10718 10717 10717 10717 10717 10717 10716 10716 10715 10715 10715 10715 10716 10715 10712
10587 10592 10595 10598 10603 10608 10611 10611 10614 10618 10623 10627 10624 10625 10630 10630 10627 10619 10622 10641 10647 10646 10658 10666 10667 10666 10666 10670 10673 10677 10682 10683 10686 10686 10685 10687 10689 10692 10697 10699 10702 10703 10703 10704 10705 10706 10707 10707 10708 10708 10709 10711 10711 10711 10711 10711 10712 10713 10713 10713 10713 10712 10712 10712 10712 10711 10710 10711 10711 10712 10712 10712 10711 10711 10711 10710 10711 10710 10709 10709 10708 10708 10708 10708 10708 10707
10582 10585 10590 10595 10599 10603 10604 10607 10610 10613 10617 10620 10618 10620 10624 10624 10620 10616 10622 10636 10641 10646 10655 10658 10659 10660 10659 10665 10673 10674 10675 10678 10679 10679 10680 10683 10686 10688 10691 10694 10696 10697 10697 10698 10698 10700 10701 10702 10702 10703 10704 10705 10705 10705 10705 10706 10707 10707 10707 10706 10706 10706 10706 10706 10706 10705 10704 10704 10704 10704 10705 10705 10705 10705 10704 10704 10704 10703 10703 10702 10701 10701 10701 10701 10701 10700
10576 10581 10587 10591 10595 10598 10600 10602 10605 10608 10612 10614 10614 10617 10619 10617 10617 10618 10623 10630 10637 10646 10649 10647 10651 10652 10651 10660 10671 10673 10673 10674 10672 10673 10676 10679 10681 10683 10685 10688 10689 10690 10691 10691 10692 10693 10695 10696 10696 10697 10699 10699 10699 10699 10700 10700 10701 10701 10701 10700 10700 10700 10700 10699 10699 10698 10698 10697 10697 10697 10697 10697 10698 10698 10698 10698 10697 10697 10696 10696 10695 10695 10694 10694 10694 10694
10572 10579 10583 10586 10591 10593 10594 10599 10601 10604 10610 10610 10610 10613 10615 10613 10615 10619 10622 10627 10635 10640 10641 10640 10640 10641 10644 10654 10667 10671 10670 10669 10665 10666 10671 10674 10676 10678 10679 10681 10683 10683 10684 10684 10685 10687 10689 10690 10691 10692 10693 10693 10693 10693 10694 10695 10695 10695 10694 10694 10694 10694 10694 10693 10692 10691 10691 10690 10690 10690 10690 10690 10690 10691 10691 10691 10691 10691 10690 10690 10689 10689 10689 10688 10687 10687
10569 10574 10578 10584 10589 10588 10589 10595 10598 10601 10606 10605 10604 10609 10612 10610 10613 10617 10619 10624 10629 10629 10633 10633 10629 10633 10641 10649 10662 10669 10666 10664 10662 10662 10666 10669 10671 10672 10673 10675 10676 10677 10677 10678 10680 10682 10683 10685 10685 10687 10687 10686 10686 10687 10688 10688 10689 10689 10689 10689 10690 10689 10688 10687 10686 10685 10684 10684 10683 10683 10683 10684 10684 10684 10684 10684 10684 10684 10684 10684 10683 10683 10683 10682 10681 10680
10564 10570 10576 10581 10582 10582 10585 10591 10594 10595 10598 10600 10599 10603 10607 10608 10611 10613 10613 10618 10620 10620 10625 10624 10621 10631 10641 10646 10656 10662 10661 10661 10660 10659 10660 10663 10665 10666 10667 10669 10669 10671 10672 10674 10675 10676 10677 10678 10679 10680 10680 10680 10680 10681 10682 10682 10683 10683 10683 10684 10685 10684 10683 10682 10681 10680 10679 10678 10677 10677 10677 10677 10677 10677 10677 10678 10678 10678 10678 10677 10677 10677 10677 10676 10675 10674
10560 10566 10571 10572 10572 10577 10581 10585 10588 10588 10591 10595 10593 10595 10605 10608 10607 10606 10606 10610 10612 10613 10616 10616 10619 10629 10637 10642 10648 10652 10655 10658 10656 10655 10655 10656 10658 10660 10662 10663 10664 10666 10667 10669 10670 10671 10671 10672 10673 10674 10673 10674 10674 10675 10676 10676 10677 10678 10678 10679 10679 10678 10677 10676 10675 10674 10673 10673 10671 10671 10670 10670 10671 10671 10671 10672 10672 10672 10672 10671 10671 10671 10671 10670 10669 10668
10555 10559 10562 10565 10567 10573 10578 10580 10582 10582 10585 10589 10588 10594 10603 10601 10597 10599 10601 10603 10606 10608 10609 10611 10617 10625 10630 10636 10641 10645 10650 10650 10649 10650 10649 10649 10652 10655 10657 10659 10661 10662 10663 10664 10665 10665 10665 10666 10667 10667 10667 10668 10668 10669 10670 10670 10671 10672 10673 10673 10673 10672 10671 10671 10670 10669 10668 10667 10666 10665 10664 10664 10664 10665 10665 10665 10665 10665 10666 10666 10666 10665 10665 10664 10664 10663
10548 10550 10553 10560 10563 10568 10574 10574 10575 10577 10580 10587 10589 10591 10592 10589 10590 10596 10598 10598 10602 10604 10605 10608 10614 10619 10623 10628 10635 10640 10642 10641 10642 10644 10644 10645 10647 10650 10653 10655 10657 10658 10658 10659 10659 10660 10660 10660 10661 10660 10661 10662 10663 10663 10664 10664 10665 10666 10666 10667 10667 10666 10666 10665 10664 10663 10662 10662 10660 10659 10659 10658 10658 10659 10659 10659 10659 10659 10659 10659 10660 10659 10659 10658 10657 10656
10539 10542 10546 10554 10558 10561 10565 10567 10571 10575 10578 10584 10585 10582 10581 10584 10589 10594 10595 10597 10599 10599 10601 10605 10608 10613 10617 10622 10630 10634 10634 10635 10638 10638 10639 10641 10643 10646 10649 10650 10651 10652 10652 10653 10654 10654 10655 10655 10654 10654 10655 10656 10657 10657 10657 10658 10658 10659 10660 10660 10660 10660 10660 10659 10658 10657 10657 10656 10655 10654 10653 10653 10652 10652 10652 10652 10652 10653 10653 10653 10653 10653 10653 10652 10651 10650
10533 10538 10542 10548 10552 10554 10559 10565 10571 10573 10573 10576 10578 10576 10578 10583 10586 10588 10591 10594 10596 10595 10596 10599 10602 10606 10612 10618 10623 10626 10627 10630 10632 10633 10634 10634 10636 10640 10642 10643 10644 10645 10647 10648 10648 10649 10649 10649 10649 10649 10650 10650 10650 10651 10651 10651 10652 10652 10653 10654 10654 10654 10654 10653 10652 10652 10651 10650 10649 10648 10648 10647 10647 10646 10646 10646 10646 10646 10646 10646 10646 10646 10646 10645 10644 10644
10528 10533 10536 10541 10545 10550 10558 10566 10568 10566 10566 10569 10572 10572 10575 10579 10580 10582 10586 10589 10592 10591 10590 10593 10597 10601 10606 10611 10615 10619 10622 10624 10626 10627 10628 10628 10630 10633 10635 10637 10639 10640 10642 10642 10642 10642 10643 10643 10644 10644 10644 10644 10644 10644 10645 10645 10645 10646 10647 10647 10647 10648 10647 10647 10646 10645 10645 10643 10643 10642 10642 10641 10641 10640 10640 10640 10640 10640 10640 10640 10639 10639 10639 10639 10638 10637
10523 10527 10529 10533 10540 10549 10557 10561 10560 10559 10562 10565 10565 10566 10570 10574 10575 10577 10581 10585 10586 10585 10585 10588 10591 10595 10599 10603 10608 10614 10617 10619 10620 10621 10620 10621 10625 10628 10630 10632 10634 10634 10635 10635 10635 10636 10636 10637 10637 10637 10637 10637 10637 10638 10638 10639 10639 10640 10640 10640 10641 10641 10640 10640 10639 10638 10638 10637 10636 10636 10635 10635 10635 10634 10634 10633 10633 10633 10633 10633 10632 10632 10632 10632 10631 10630
10517 10519 10521 10527 10537 10546 10549 10553 10555 10555 10557 10559 10559 10561 10567 10572 10573 10575 10578 10579 10579 10577 10577 10580 10585 10590 10593 10597 10604 10611 10613 10614 10614 10612 10612 10615 10620 10623 10625 10627 10628 10628 10628 10628 10629 10629 10630 10630 10630 10630 10631 10631 10631 10632 10632 10633 10633 10634 10634 10634 10634 10633 10634 10634 10632 10631 10631 10630 10629 10629 10628 10628 10628 10628 10627 10627 10627 10626 10626 10626 10626 10626 10625 10625 10625 10624
10510 10513 10516 10524 10533 10538 10540 10545 10550 10550 10551 10554 10556 10559 10565 10569 10570 10572 10572 10570 10569 10568 10568 10572 10580 10586 10589 10594 10602 10607 10606 10606 10605 10605 10607 10610 10614 10618 10619 10621 10622 10622 10622 10622 10623 10623 10623 10623 10623 10623 10624 10624 10625 10625 10626 10626 10627 10628 10628 10627 10626 10626 10627 10627 10626 10624 10624 10623 10622 10621 10621 10621 10621 10621 10621 10620 10620 10619 10619 10619 10619 10619 10619 10618 10618 10617
10507 10509 10512 10519 10526 10530 10535 10543 10548 10549 10550 10551 10553 10555 10560 10563 10563 10565 10565 10563 10562 10562 10563 10568 10575 10582 10587 10592 10597 10599 10598 10598 10599 10601 10603 10606 10609 10613 10614 10614 10616 10616 10616 10617 10617 10617 10616 10616 10616 10617 10617 10618 10619 10619 10620 10620 10621 10621 10621 10620 10619 10619 10620 10620 10619 10617 10616 10616 10615 10614 10614 10613 10613 10613 10613 10613 10613 10612 10612 10612 10612 10612 10612 10611 10611 10610
10501 10503 10507 10514 10522 10528 10534 10540 10543 10543 10542 10543 10546 10549 10553 10556 10557 10559 10560 10557 10557 10558 10558 10564 10572 10580 10585 10588 10590 10592 10592 10593 10595 10597 10599 10601 10604 10606 10607 10608 10609 10609 10610 10611 10611 10610 10610 10610 10610 10610 10611 10612 10613 10613 10613 10614 10614 10614 10614 10613 10613 10613 10613 10612 10611 10610 10609 10608 10607 10606 10606 10606 10606 10605 10605 10605 10605 10605 10604 10604 10604 10604 10604 10604 10603 10602
10496 10500 10505 10511 10518 10523 10526 10528 10530 10532 10534 10537 10541 10543 10545 10548 10549 10551 10552 10550 10551 10553 10555 10561 10571 10577 10581 10583 10584 10585 10586 10588 10589 10591 10594 10596 10598 10600 10600 10601 10602 10603 10604 10604 10604 10604 10603 10603 10604 10605 10606 10607 10607 10606 10606 10607 10607 10607 10607 10607 10606 10606 10605 10604 10604 10603 10602 10601 10600 10599 10599 10599 10598 10598 10597 10597 10597 10597 10597 10596 10596 10596 10596 10596 10595 10594
10493 10499 10504 10508 10511 10515 10517 10519 10522 10528 10532 10534 10536 10536 10538 10541 10543 10543 10544 10543 10546 10551 10555 10561 10568 10571 10573 10575 10577 10578 10580 10582 10584 10586 10588 10590 10592 10593 10594 10595 10596 10597 10597 10597 10598 10597 10596 10597 10599 10600 10601 10601 10600 10599 10599 10600 10601 10601 10600 10599 10599 10599 10598 10597 10597 10596 10595 10594 10593 10593 10592 10592 10591 10590 10589 10589 10588 10588 10588 10588 10588 10588 10587 10587 10587 10586
10490 10496 10500 10502 10504 10507 10511 10513 10517 10523 10528 10528 10529 10530 10532 10535 10537 10536 10536 10539 10545 10551 10555 10559 10563 10565 10566 10568 10570 10572 10574 10576 10578 10580 10582 10584 10585 10586 10588 10589 10589 10589 10590 10591 10591 10590 10590 10592 10594 10595 10596 10594 10593 10592 10593 10594 10594 10593 10593 10593 10592 10591 10591 10590 10590 10589 10588 10587 10586 10586 10585 10585 10584 10582 10581 10581 10580 10580 10580 10579 10579 10579 10579 10579 10578 10578
10485 10490 10493 10495 10496 10500 10505 10508 10511 10517 10520 10521 10522 10524 10526 10529 10532 10532 10533 10539 10545 10550 10553 10555 10557 10559 10560 10562 10564 10565 10567 10569 10571 10574 10576 10578 10579 10580 10581 10581 10581 10583 10584 10584 10583 10583 10584 10587 10589 10589 10588 10586 10585 10585 10586 10588 10587 10586 10586 10586 10585 10584 10584 10583 10583 10582 10581 10579 10579 10578 10577 10577 10576 10575 10574 10573 10572 10571 10571 10571 10570 10570 10570 10570 10569 10568
10479 10482 10486 10488 10491 10496 10500 10503 10506 10509 10512 10515 10518 10520 10522 10525 10528 10529 10533 10539 10543 10544 10547 10550 10552 10553 10555 10556 10557 10559 10560 10562 10564 10567 10570 10572 10573 10574 10574 10574 10575 10577 10577 10577 10576 10577 10579 10582 10583 10581 10579 10578 10578 10579 10580 10580 10580 10579 10579 10578 10578 10577 10576 10576 10575 10574 10573 10572 10571 10570 10569 10568 10567 10567 10566 10565 10564 10563 10562 10562 10561 10561 10560 10560 10560 10559
10473 10474 10479 10484 10488 10491 10494 10498 10500 10502 10505 10509 10512 10514 10516 10519 10524 10527 10531 10536 10537 10537 10539 10543 10544 10545 10547 10549 10550 10552 10554 10556 10558 10561 10564 10565 10567 10567 10567 10567 10569 10570 10571 10570 10569 10571 10574 10575 10574 10573 10571 10571 10572 10573 10572 10572 10571 10571 10571 10570 10570 10569 10569 10569 10568 10567 10566 10564 10563 10562 10561 10560 10558 10558 10557 10556 10555 10555 10554 10553 10552 10551 10551 10550 10549 10549
10466 10470 10476 10480 10481 10483 10488 10493 10494 10495 10498 10502 10506 10510 10513 10516 10520 10524 10526 10528 10529 10530 10532 10535 10536 10538 10540 10542 10544 10546 10548 10550 10552 10554 10557 10558 10560 10561 10561 10562 10563 10563 10563 10563 10563 10566 10568 10567 10566 10565 10564 10564 10564 10565 10565 10564 10564 10564 10563 10563 10562 10562 10561 10561 10560 10559 10558 10557 10555 10554 10553 10552 10550 10549 10548 10547 10546 10546 10545 10544 10542 10541 10540 10540 10539 10538
10462 10466 10470 10472 10473 10477 10483 10486 10487 10489 10493 10498 10503 10508 10510 10512 10516 10517 10519 10521 10524 10524 10524 10527 10531 10533 10534 10536 10537 10539 10542 10544 10546 10548 10550 10552 10554 10554 10554 10555 10556 10556 10556 10557 10559 10561 10560 10559 10559 10559 10558 10557 10557 10557 10558 10558 10557 10557 10556 10556 10555 10555 10554 10553 10552 10551 10549 10548 10547 10546 10545 10544 10542 10540 10538 10538 10538 10537 10535 10534 10533 10531 10530 10529 10528 10527
10458 10461 10463 10465 10469 10473 10477 10479 10480 10484 10490 10495 10499 10502 10504 10507 10510 10511 10512 10515 10517 10517 10517 10520 10525 10527 10528 10530 10531 10533 10535 10538 10540 10542 10543 10544 10546 10547 10547 10548 10549 10549 10549 10551 10553 10553 10552 10552 10552 10552 10551 10551 10551 10550 10550 10550 10550 10550 10549 10549 10549 10548 10547 10545 10544 10543 10541 10539 10538 10538 10537 10535 10534 10532 10530 10529 10529 10528 10526 10524 10523 10522 10520 10518 10517 10517
10454 10456 10458 10461 10466 10470 10473 10474 10476 10481 10486 10490 10494 10496 10499 10502 10503 10504 10506 10507 10510 10512 10513 10516 10520 10521 10523 10525 10526 10528 10530 10532 10534 10535 10536 10537 10538 10539 10540 10541 10542 10542 10543 10544 10545 10545 10545 10545 10545 10545 10545 10545 10544 10544 10543 10543 10543 10543 10542 10542 10541 10540 10539 10537 10536 10535 10533 10531 10529 10529 10529 10527 10525 10523 10522 10521 10520 10518 10516 10514 10512 10511 10510 10508 10506 10505
10450 10452 10455 10459 10463 10466 10468 10469 10472 10477 10482 10486 10488 10491 10494 10497 10498 10499 10500 10501 10504 10507 10509 10512 10514 10516 10518 10519 10520 10522 10523 10525 10527 10528 10529 10530 10531 10532 10534 10535 10536 10536 10537 10537 10537 10537 10538 10538 10538 10538 10538 10538 10538 10537 10536 10536 10536 10535 10535 10534 10533 10532 10530 10529 10527 10526 10525 10522 10520 10520 10520 10518 10516 10514 10514 10512 10510 10508 10506 10504 10502 10500 10499 10497 10495 10493
10445 10447 10451 10455 10458 10461 10464 10465 10468 10474 10478 10481 10483 10485 10489 10491 10492 10493 10494 10495 10498 10502 10504 10506 10508 10510 10512 10513 10515 10516 10517 10519 10520 10521 10522 10523 10524 10526 10528 10529 10530 10530 10530 10530 10530 10530 10531 10531 10531 10531 10531 10531 10531 10530 10530 10529 10529 10528 10528 10527 10525 10524 10522 10521 10519 10517 10516 10514 10511 10510 10510 10509 10507 10505 10504 10502 10500 10497 10494 10493 10490 10488 10486 10485 10483 10481
10441 10444 10447 10450 10452 10455 10459 10461 10465 10470 10472 10474 10476 10479 10483 10485 10485 10486 10489 10492 10495 10497 10499 10501 10503 10504 10507 10508 10509 10511 10513 10514 10514 10515 10516 10517 10519 10521 10522 10522 10522 10523 10523 10523 10524 10524 10524 10524 10524 10524 10524 10524 10523 10523 10523 10522 10521 10521 10520 10519 10517 10515 10514 10512 10511 10509 10508 10506 10503 10501 10501 10500 10498 10495 10493 10491 10489 10486 10483 10481 10478 10476 10473 10471 10470 10468
10437 10440 10443 10445 10448 10451 10455 10458 10461 10464 10466 10468 10471 10475 10478 10479 10481 10484 10487 10489 10491 10493 10495 10497 10498 10500 10502 10503 10505 10507 10508 10508 10508 10510 10511 10513 10514 10514 10515 10515 10516 10516 10517 10517 10517 10517 10517 10517 10517 10518 10517 10517 10517 10516 10516 10515 10514 10513 10512 10510 10509 10507 10506 10504 10503 10501 10499 10497 10495 10493 10491 10490 10488 10485 10482 10479 10477 10474 10471 10468 10466 10463 10460 10458 10456 10454
10433 10436 10439 10442 10445 10448 10451 10455 10457 10459 10461 10464 10468 10471 10473 10475 10479 10482 10484 10485 10486 10489 10491 10493 10494 10495 10497 10498 10500 10501 10501 10502 10503 10505 10506 10508 10509 10508 10508 10509 10510 10510 10510 10511 10511 10511 10510 10510 10511 10511 10510 10510 10510 10509 10508 10507 10506 10505 10503 10502 10501 10499 10498 10496 10495 10493 10491 10488 10486 10483 10481 10480 10478 10475 10472 10468 10465 10462 10459 10456 10453 10450 10447 10444 10442 10439
10430 10433 10436 10439 10442 10444 10447 10450 10453 10456 10458 10461 10464 10466 10469 10473 10477 10478 10478 10479 10481 10483 10485 10486 10488 10490 10491 10493 10494 10494 10495 10497 10499 10500 10501 10503 10502 10501 10501 10503 10503 10503 10504 10504 10504 10504 10504 10504 10504 10504 10503 10503 10503 10502 10501 10499 10498 10497 10495 10494 10493 10491 10489 10488 10486 10484 10482 10479 10477 10473 10471 10469 10467 10464 10461 10457 10454 10450 10447 10444 10440 10436 10433 10430 10428 10425
10428 10430 10433 10436 10439 10442 10445 10448 10451 10454 10455 10457 10460 10462 10465 10469 10471 10471 10471 10473 10475 10477 10478 10480 10483 10485 10486 10487 10488 10489 10490 10492 10493 10494 10495 10496 10495 10494 10495 10496 10497 10497 10497 10497 10497 10497 10497 10497 10497 10496 10496 10496 10495 10494 10493 10491 10490 10489 10487 10486 10485 10483 10481 10479 10477 10475 10472 10470 10467 10464 10461 10458 10455 10451 10448 10445 10441 10438 10434 10430 10427 10423 10420 10416 10414 10411
10426 10428 10431 10434 10437 10440 10443 10446 10448 10450 10452 10453 10455 10458 10461 10463 10464 10465 10467 10469 10470 10472 10474 10476 10479 10480 10481 10481 10482 10483 10485 10486 10486 10487 10489 10490 10489 10488 10489 10490 10491 10491 10491 10491 10491 10490 10490 10490 10490 10489 10489 10488 10487 10486 10485 10484 10483 10481 10480 10479 10477 10475 10473 10471 10468 10466 10463 10460 10457 10453 10450 10446 10443 10439 10436 10432 10428 10425 10421 10417 10413 10410 10406 10403 10399 10397
10424 10426 10429 10432 10435 10437 10439 10442 10445 10447 10448 10448 10450 10454 10457 10459 10460 10462 10464 10465 10467 10468 10470 10472 10473 10474 10475 10476 10476 10477 10478 10479 10480 10481 10482 10483 10483 10483 10483 10484 10484 10484 10484 10484 10484 10484 10483 10483 10482 10482 10481 10481 10479 10478 10477 10476 10475 10474 10472 10470 10469 10467 10465 10462 10459 10457 10454 10450 10447 10443 10439 10435 10431 10428 10424 10420 10416 10412 10409 10405 10401 10397 10393 10390 10386 10383
10422 10424 10427 10430 10432 10434 10437 10439 10441 10443 10444 10445 10447 10450 10454 10456 10457 10459 10460 10461 10462 10463 10464 10466 10467 10468 10469 10470 10471 10471 10472 10473 10474 10474 10475 10476 10477 10477 10477 10477 10477 10478 10478 10478 10477 10477 10476 10476 10475 10475 10474 10473 10472 10470 10469 10469 10467 10466 10464 10462 10460 10458 10456 10453 10450 10447 10444 10440 10437 10432 10428 10424 10420 10417 10413 10409 10405 10400 10397 10393 10390 10385 10381 10378 10375 10372
10421 10424 10426 10427 10429 10431 10434 10436 10437 10439 10440 10442 10444 10446 10449 10451 10452 10453 10454 10455 10456 10457 10459 10460 10461 10462 10463 10464 10464 10465 10466 10467 10468 10468 10468 10469 10470 10470 10471 10471 10471 10471 10471 10471 10470 10469 10469 10468 10468 10467 10467 10465 10464 10463 10462 10461 10460 10458 10456 10454 10452 10450 10447 10444 10441 10438 10434 10430 10427 10423 10418 10414 10409 10406 10402 10399 10395 10391 10386 10382 10379 10375 10371 10367 10365 10362
10419 10421 10423 10424 10426 10428 10429 10431 10433 10435 10437 10438 10439 10441 10443 10445 10446 10448 10449 10450 10451 10453 10454 10455 10456 10456 10457 10458 10459 10460 10460 10461 10462 10462 10462 10463 10463 10464 10464 10464 10464 10464 10464 10463 10463 10462 10461 10460 10460 10460 10459 10458 10457 10456 10455 10453 10452 10450 10448 10446 10443 10441 10438 10435 10432 10428 10425 10421 10417 10413 10409 10405 10400 10396 10392 10389 10386 10382 10377 10372 10369 10366 10361 10357 10355 10352
10415 10417 10419 10421 10423 10424 10426 10427 10429 10431 10432 10433 10434 10435 10437 10439 10441 10442 10443 10445 10446 10447 10448 10449 10450 10451 10451 10452 10453 10454 10454 10455 10456 10456 10457 10457 10457 10457 10457 10457 10457 10457 10456 10456 10455 10454 10453 10453 10453 10453 10452 10450 10449 10448 10447 10446 10444 10442 10439 10437 10434 10432 10429 10426 10422 10419 10416 10412 10408 10404 10400 10396 10392 10388 10384 10379 10375 10372 10368 10364 10361 10358 10353 10349 10346 10343
10411 10413 10416 10417 10418 10420 10422 10423 10425 10426 10427 10427 10427 10429 10431 10434 10436 10437 10439 10440 10441 10442 10442 10444 10444 10445 10446 10447 10447 10448 10449 10449 10450 10450 10451 10450 10450 10450 10450 10450 10450 10449 10449 10448 10447 10447 10446 10446 10446 10445 10444 10443 10442 10441 10439 10438 10436 10433 10431 10428 10425 10423 10420 10416 10413 10409 10406 10403 10399 10395 10391 10387 10383 10380 10377 10372 10367 10363 10359 10355 10352 10349 10346 10341 10338 10334
10408 10409 10410 10412 10414 10415 10417 10419 10421 10422 10422 10423 10423 10425 10427 10430 10431 10432 10433 10435 10436 10436 10437 10438 10439 10440 10441 10441 10442 10442 10443 10443 10443 10444 10444 10444 10444 10444 10444 10443 10443 10442 10441 10441 10440 10440 10439 10439 10438 10438 10436 10435 10434 10432 10431 10429 10427 10425 10422 10419 10417 10413 10410 10407 10404 10401 10397 10394 10390 10387 10384 10380 10376 10372 10368 10365 10361 10357 10353 10349 10345 10341 10338 10334 10331 10327